Location: Gunnedah
(30.9923°S, 150.2369°E)
Time: 22:41:54
(UTC+10:00)

Envisat - Visible Passes

Search period start: 12 August 2020 00:00
Search period end: 22 August 2020 00:00
Orbit: 764 x 766 km, 98.1° (Epoch: 12 August)

Date Brightness Start Highest point End Pass type
(mag) Time Alt. Az. Time Alt. Az. Time Alt. Az.
12 Aug 5.4 04:27:02 10° ENE 04:30:45 21° ESE 04:34:29 10° SSE visible
12 Aug 3.6 06:04:48 10° NNW 06:09:28 36° W 06:14:10 10° SSW visible
12 Aug 3.4 18:18:46 10° S 18:23:53 67° WSW 18:28:55 10° NNW visible
13 Aug 3.0 05:27:32 10° NNE 05:32:38 89° W 05:37:47 10° SSW visible
13 Aug 5.8 19:22:45 10° SSW 19:25:37 15° WSW 19:28:31 10° WNW visible
14 Aug 4.5 04:51:19 10° NE 04:55:59 37° ESE 05:00:41 10° S visible
14 Aug 4.6 18:44:32 10° S 18:49:11 35° WSW 18:53:47 10° NW visible
15 Aug 5.8 04:16:30 10° ENE 04:19:31 16° ESE 04:22:34 10° SSE visible
15 Aug 3.3 05:53:11 10° N 05:58:04 47° W 06:03:02 10° SSW visible
15 Aug 3.1 18:07:23 10° SSE 18:12:33 87° W 18:17:38 10° NNW visible
16 Aug 3.3 05:16:15 10° NNE 05:21:18 70° ESE 05:26:25 10° S visible
16 Aug 5.6 19:10:47 10° SSW 19:14:25 20° WSW 19:18:00 10° WNW visible
17 Aug 4.9 04:40:22 10° NE 04:44:43 29° ESE 04:49:05 10° SSE visible
17 Aug 4.1 18:33:00 10° S 18:37:54 46° WSW 18:42:45 10° NW visible
18 Aug 6.0 04:06:20 10° E 04:08:19 12° ESE 04:10:18 10° SE visible
18 Aug 3.0 05:41:41 10° N 05:46:43 62° W 05:51:49 10° SSW visible
18 Aug 3.0 17:56:04 10° SSE 18:01:13 72° ENE 18:06:17 10° N visible
18 Aug 6.2 19:38:39 10° SW 19:39:32 10° WSW 19:40:23 10° WSW visible
19 Aug 3.8 05:05:03 10° NNE 05:09:59 53° ESE 05:15:00 10° S visible
19 Aug 5.2 18:59:01 10° SSW 19:03:10 25° WSW 19:07:17 10° NW visible
20 Aug 5.3 04:29:33 10° ENE 04:33:27 23° ESE 04:37:23 10° SSE visible
20 Aug 3.6 18:21:32 10° S 18:26:36 61° WSW 18:31:36 10° NNW visible
21 Aug 3.0 05:30:16 10° N 05:35:22 81° WNW 05:40:32 10° SSW visible
21 Aug 5.9 19:25:47 10° SW 19:28:19 14° WSW 19:30:51 10° W visible
